Probability
0 0 0 0 0 0 0 0 0 0 0 0 0 0 0 0 0 0 0 0 0 0 0 0 0 0 0 0 0 0 0 0 0 0 0 0 0 0 0 0 0 0 0
0 0 0 0 0 0 0 0 0 0 0 0 0 0 0 0 0 0 0 0 0 0 0 0 0 0 0 0 0 0 0 0 0 0 0 0 0 0 0 0 0 0 0
0 0 0 0 0 0 0 0 0 0 0 0 0 0 0 0 0 0 0 0 0 0 0 0 0 0 0 0 0 0 0 0 0 0 0 0 0 0 0 0 0 0 0
0 0 0 0 0 0 0 0 0 0 0 0 0 0 0 0 0 0 0 0 0 0 0 0 0 0 0 0 0 0 0 0 0 0 0 0 0 0 0 0 0 0 0
0 0 0 0 0 0 0 0 0 0 0 0 0 0 0 0 0 0 0 0 0 0 0 0 0 0 0 0 0 0 0 0 0 0 0 0 0 0 0 0 0 0 0
0 0 0 0 0 0 0 0 0 0 0 0 0 0 0 0 0 0 0 0 0 0 0 0 0 0 0 0 0 0 0 0 0 0 0 0 0 0 0 0 0 0 0
0 0 0 0 0 0 0 0 0 0 0 0 0 0 0 0 0 0 0 0 0 0 0 0 0 0 0 0 0 0 0 0 0 0 0 0 0 0 0 0 0 0 0
0 0 0 0 0 0 0 0 0 0 0 0 0 0 0 0 0 0 0 0 0 0 0 0 0 0 0 0 0 0 0 0 0 0 0 0 0 0 0 0 0 0 0
0 0 0 0 0 0 0 0 0 0 0 0 0 0 0 0 0 0 0 0 0 0 0 0 0 0 0 0 0 0 0 0 0 0 0 0 0 0 0 0 0 0 0
0 0 0 0 0 0 0 0 0 0 0 0 0 0 0 0 0 0 0 0 0 0 0 0 0 0 0 0 0 0 0 0 0 0 0 0 0 0 0 0 0 0 0
0 0 0 0 0 0 0 0 0 0 0 0 0 0 0 0 0 0 0 0 0 0 0 0 0 0 0 0 0 0 0 0 0 0 0 0 0 0 0 0 0 0 0
0 0 0 0 0 0 0 0 0 0 0 0 0 0 0 0 0 0 0 0 0 0 0 0 0 0 0 0 0 0 0 0 0 0 0 0 0 0 0 0 0 0 0
0 0 0 0 0 0 0 0 0 0 0 0 0 0 0 0 0 0 0 0 0 0 0 0 0 0 0 0 0 0 0 0 0 0 0 0 0 0 0 0 0 0 0
0 0 0 0 0 0 0 0 0 0 0 0 0 0 0 0 0 0 0 0 0 0 0 0 0 0 0 0 0 0 0 0 0 0 0 0 0 0 0 0 0 0 0
0 0 0 0 0 0 0 0 0 0 0 0 0 0 0 0 0 0 0 0 0 0 0 0 0 0 0 0 0 0 0 0 0 0 0 0 0 0 0 0 0 0 0
0 0 0 0 0 0 0 0 0 0 0 0 0 0 0 0 0 0 0 0 0 0 0 0 0 0 0 0 0 0 0 0 0 0 0 0 0 0 0 0 0 0 0
0 0 0 0 0 0 0 0 0 0 0 0 0 0 0 0 0 0 0 0 0 0 0 0 0 0 0 0 0 0 0 0 0 0 0 0 0 0 0 0 0 0 0
0 0 0 0 0 0 0 0 0 0 0 0 0 0 0 0 0 0 0 0 0 0 0 0 0 0 0 0 0 0 0 0 0 0 0 0 0 0 0 0 0 0 0
0 0 0 0 0 0 0 0 0 0 0 0 0 0 0 0 0 0 0 0 0 0 0 0 0 0 0 0 0 0 0 0 0 0 0 0 0 0 0 0 0 0 0
0 0 0 0 0 0 0 0 0 0 0 0 0 0 0 0 0 0 0 0 0 0 0 0 0 0 0 0 0 0 0 0 0 0 0 0 0 0 0 0 0 0 0
0 0 0 0 0 0 0 0 0 0 0 0 0 0 0 0 0 0 0 0 0 0 0 0 0 0 0 0 0 0 0 0 0 0 0 0 0 0 0 0 0 0 0
0 0 0 0 0 0 0 0 0 0 0 0 0 0 0 0 0 0 0 0 0 0 0 0 0 0 0 0 0 0 0 0 0 0 0 0 0 0 0 0 0 0 0
0 0 0 0 0 0 0 0 0 0 0 0 0 0 0 0 0 0 0 0 0 0 0 0 0 0 0 0 0 0 0 0 0 0 0 0 0 0 0 0 0 0 0
0 0 0 0 0 0 0 0 0 0 0 0 0 0 0 0 0 0 0 0 0 0 0 0 0 0 0 0 0 0 0 0 0 0 0 0 0 0 0 0 0 0 0
0 0 0 0 0 0 0 0 0 0 0 0 0 0 0 0 0 0 0 0 0 0 0 0 0 0 0 0 0 0 0 0 0 0 0 0 0 0 0 0 0 0 0
0 0 0 0 0 0 0 0 0 0 0 0 0 0 0 0 0 0 0 0 0 0 0 0 0 0 0 0 0 0 0 0 0 0 0 0 0 0 0 0 0 0 0
Height
5844 5844 5844 5843 5843 5841 5840 5838 5837 5834 5832 5829 5826 5823 5820 5816 5813 5809 5805 5802 5798 5794 5790 5785 5781 5777 5773 5770 5766 5762 5758 5754 5750 5747 5743 5740 5737 5733 5731 5728 5725 5722 5720
5840 5840 5840 5839 5838 5837 5835 5833 5831 5829 5826 5823 5820 5817 5814 5810 5807 5803 5799 5795 5791 5787 5783 5779 5775 5771 5767 5763 5759 5755 5751 5747 5743 5739 5736 5732 5729 5726 5722 5719 5716 5714 5711
5835 5835 5835 5834 5833 5832 5830 5828 5826 5823 5821 5818 5815 5811 5808 5805 5801 5797 5793 5789 5785 5781 5777 5772 5768 5764 5760 5756 5752 5748 5744 5740 5736 5732 5728 5724 5721 5717 5714 5711 5708 5705 5702
5830 5830 5830 5829 5828 5826 5825 5823 5820 5818 5815 5812 5809 5806 5802 5798 5795 5791 5787 5783 5779 5775 5770 5766 5762 5758 5753 5749 5745 5741 5736 5732 5728 5724 5720 5716 5713 5709 5705 5702 5699 5696 5693
5825 5825 5825 5824 5822 5821 5819 5817 5815 5812 5809 5806 5803 5799 5796 5792 5788 5784 5780 5776 5772 5768 5764 5760 5755 5751 5746 5742 5738 5733 5729 5725 5720 5716 5712 5708 5704 5700 5697 5693 5690 5687 5684
5820 5819 5819 5818 5817 5815 5813 5811 5808 5806 5803 5800 5797 5793 5790 5786 5782 5778 5774 5770 5766 5762 5757 5753 5748 5744 5739 5735 5730 5725 5721 5716 5712 5708 5703 5699 5695 5691 5688 5684 5680 5677 5674
5814 5814 5813 5812 5811 5809 5807 5805 5802 5800 5797 5793 5790 5787 5783 5780 5776 5772 5767 5763 5759 5755 5751 5746 5742 5737 5732 5727 5722 5717 5712 5707 5703 5698 5694 5690 5686 5682 5678 5674 5670 5666 5663
5808 5807 5807 5806 5804 5803 5801 5798 5796 5793 5790 5787 5784 5780 5777 5774 5769 5765 5761 5757 5752 5748 5743 5739 5734 5729 5724 5719 5714 5708 5703 5698 5693 5688 5684 5680 5675 5671 5666 5662 5658 5655 5651
5802 5801 5800 5799 5798 5796 5794 5792 5789 5786 5783 5780 5777 5774 5770 5767 5763 5759 5754 5750 5745 5741 5736 5731 5726 5721 5715 5710 5705 5699 5694 5688 5683 5678 5673 5668 5664 5659 5654 5650 5646 5642 5638
5795 5795 5794 5793 5791 5789 5787 5785 5782 5779 5776 5773 5770 5766 5763 5759 5756 5752 5748 5743 5738 5733 5728 5723 5717 5712 5706 5700 5695 5689 5683 5678 5672 5667 5662 5656 5651 5646 5641 5636 5632 5627 5623
5788 5788 5787 5786 5784 5782 5780 5778 5775 5773 5769 5766 5763 5759 5755 5752 5748 5744 5741 5736 5731 5725 5720 5714 5709 5703 5697 5691 5685 5679 5673 5667 5661 5655 5650 5644 5638 5632 5626 5621 5616 5611 5606
5781 5781 5780 5779 5777 5775 5773 5771 5768 5765 5762 5759 5756 5752 5748 5744 5740 5736 5732 5728 5723 5717 5711 5705 5699 5694 5688 5681 5675 5669 5663 5656 5650 5643 5637 5630 5623 5617 5611 5605 5599 5593 5588
5774 5774 5773 5772 5770 5768 5766 5764 5761 5758 5755 5752 5748 5745 5741 5737 5732 5728 5724 5719 5714 5709 5703 5696 5690 5684 5678 5672 5665 5658 5651 5644 5637 5630 5622 5615 5608 5601 5594 5588 5582 5575 5570
5767 5766 5765 5764 5763 5761 5759 5756 5754 5751 5748 5744 5741 5737 5733 5729 5724 5720 5715 5710 5706 5701 5695 5688 5681 5674 5668 5661 5654 5647 5640 5632 5624 5616 5608 5600 5592 5585 5577 5570 5563 5557 5551
5759 5758 5758 5757 5755 5753 5751 5749 5747 5744 5741 5737 5733 5730 5726 5721 5716 5711 5706 5701 5696 5691 5686 5679 5672 5664 5657 5650 5643 5635 5627 5618 5609 5600 5592 5583 5575 5567 5559 5551 5544 5537 5531
5751 5751 5750 5749 5747 5746 5744 5742 5739 5736 5733 5730 5726 5722 5718 5713 5708 5703 5698 5692 5687 5681 5676 5669 5661 5654 5646 5639 5630 5622 5613 5604 5594 5585 5575 5566 5557 5549 5540 5532 5525 5517 5510
5743 5743 5742 5741 5740 5738 5736 5734 5732 5729 5726 5722 5718 5714 5710 5705 5700 5695 5689 5684 5677 5671 5665 5659 5650 5643 5635 5626 5617 5608 5598 5589 5579 5569 5559 5549 5540 5531 5522 5513 5505 5497 5490
5735 5735 5734 5733 5732 5730 5729 5727 5724 5721 5718 5714 5710 5706 5702 5697 5692 5687 5681 5675 5668 5661 5655 5648 5640 5631 5623 5613 5604 5594 5584 5573 5563 5553 5543 5532 5522 5513 5504 5495 5487 5479 5472
5727 5727 5726 5725 5724 5723 5721 5719 5716 5713 5710 5706 5702 5698 5693 5688 5683 5678 5672 5666 5659 5652 5644 5637 5629 5619 5610 5600 5590 5580 5569 5558 5547 5537 5527 5516 5506 5497 5488 5479 5470 5462 5455
5719 5718 5718 5717 5716 5715 5713 5711 5708 5705 5702 5698 5694 5690 5685 5680 5675 5669 5663 5657 5650 5642 5634 5625 5617 5607 5597 5587 5576 5566 5555 5544 5533 5522 5511 5501 5491 5482 5472 5464 5455 5448 5440
5710 5710 5710 5709 5708 5707 5705 5703 5700 5697 5694 5690 5686 5681 5677 5672 5666 5660 5654 5647 5639 5632 5623 5614 5605 5595 5584 5574 5563 5551 5540 5530 5519 5507 5498 5487 5478 5468 5459 5450 5442 5434 5427
5702 5702 5702 5702 5700 5699 5697 5695 5692 5689 5686 5682 5678 5673 5668 5663 5657 5651 5644 5637 5629 5621 5613 5603 5593 5583 5572 5560 5548 5536 5525 5516 5507 5497 5485 5475 5465 5456 5447 5438 5430 5422 5415
5694 5695 5694 5694 5693 5691 5689 5687 5684 5681 5678 5674 5670 5665 5660 5654 5648 5642 5635 5628 5619 5610 5602 5592 5582 5570 5559 5548 5537 5525 5513 5501 5491 5481 5472 5464 5454 5444 5435 5427 5419 5412 5406
5686 5687 5687 5686 5685 5683 5681 5679 5676 5673 5669 5665 5661 5657 5651 5646 5640 5633 5626 5618 5609 5601 5592 5582 5571 5559 5547 5535 5524 5512 5501 5491 5480 5469 5460 5453 5444 5435 5426 5418 5410 5404 5398
5679 5679 5679 5678 5677 5675 5673 5671 5668 5665 5661 5657 5653 5648 5643 5637 5631 5625 5617 5609 5601 5591 5581 5570 5559 5547 5535 5524 5512 5501 5491 5480 5471 5461 5452 5444 5436 5427 5419 5410 5403 5396 5391
5671 5671 5671 5670 5669 5667 5665 5663 5660 5657 5653 5649 5645 5640 5634 5628 5622 5615 5608 5600 5591 5581 5571 5560 5549 5537 5525 5514 5502 5491 5481 5471 5462 5454 5445 5436 5427 5420 5413 5405 5397 5391 5385
Wind_Speed
19 19 20 21 23 24 25 26 28 29 31 32 33 34 34 35 35 36 36 37 37 38 38 38 38 37 37 37 38 38 38 37 37 37 37 37 37 37 37 37 37 37 37
20 21 22 23 24 25 27 28 29 31 32 33 34 34 35 36 36 36 37 37 38 38 38 37 37 37 38 38 38 38 38 37 37 37 37 37 38 38 38 38 37 37 37
22 23 24 25 26 27 28 29 31 32 33 34 34 35 36 36 36 37 37 37 38 38 38 37 37 38 38 38 38 38 38 38 38 38 38 39 39 39 39 38 38 38 38
24 24 25 26 27 28 30 31 32 33 34 34 35 35 36 37 37 37 37 37 37 38 38 38 38 38 39 39 39 39 39 39 39 39 39 40 40 39 39 39 38 38 39
25 26 26 27 28 29 31 32 33 34 34 35 35 36 37 37 38 38 37 37 38 38 38 38 38 39 39 39 40 40 40 40 40 41 41 40 40 40 39 39 39 40 40
26 27 28 28 29 31 32 32 33 34 35 35 36 36 37 38 38 38 37 38 38 38 39 39 39 39 40 40 41 41 42 42 42 42 42 42 41 41 41 41 41 41 41
27 28 29 30 31 32 32 33 34 34 35 36 36 37 37 38 38 38 38 38 38 39 39 40 40 40 41 42 42 43 43 44 44 44 44 43 43 43 43 44 44 44 44
29 30 30 31 32 32 33 34 34 35 36 36 36 37 37 37 37 38 38 38 39 40 40 41 42 42 43 43 44 45 45 45 46 46 46 46 46 46 46 47 47 47 47
30 30 31 32 32 33 34 34 35 36 36 36 37 37 38 37 37 37 38 39 40 41 42 42 43 44 45 45 46 46 47 47 47 48 48 49 49 49 50 50 50 50 51
31 31 32 32 33 34 34 35 35 36 36 37 37 38 38 38 38 37 38 40 41 42 42 43 44 45 46 46 46 47 48 48 49 49 50 51 52 52 53 53 54 55 55
32 33 33 33 34 34 35 35 35 35 36 37 37 38 38 38 39 39 39 41 42 42 43 44 45 46 46 46 47 48 49 50 51 51 52 54 55 56 56 57 57 58 58
34 34 34 34 34 35 35 35 35 36 36 37 38 38 38 38 39 40 41 42 42 43 44 45 46 46 47 48 49 50 51 52 53 54 55 57 58 58 59 59 60 61 61
34 34 35 35 35 35 35 35 35 36 36 37 37 38 39 39 40 41 42 43 43 44 45 46 47 48 49 50 50 52 53 54 56 57 59 60 60 60 61 62 63 63 63
35 35 35 35 35 35 35 35 35 36 36 37 38 38 39 40 41 42 43 44 44 44 46 47 48 49 50 51 52 53 55 58 59 61 61 62 62 63 65 65 65 65 66
35 35 35 35 35 35 34 35 35 36 36 37 38 39 39 41 42 43 43 44 46 46 47 48 49 51 52 53 55 57 59 61 62 63 64 64 65 66 66 66 66 66 67
34 34 35 35 35 34 34 34 35 36 36 37 38 39 40 41 42 43 44 45 47 48 48 49 51 52 54 56 58 60 62 63 64 65 66 66 66 67 67 67 67 67 67
34 34 35 34 34 33 34 34 35 36 36 37 39 40 41 42 42 43 44 46 47 49 50 51 53 54 56 59 61 63 64 65 66 66 66 67 67 67 67 66 66 65 65
34 34 34 34 33 33 34 34 34 36 37 38 39 40 41 42 42 43 45 47 48 50 51 53 54 57 59 61 63 64 65 66 66 66 66 66 66 65 64 64 63 62 61
34 34 33 32 32 33 33 34 35 36 37 38 39 40 41 42 43 44 46 47 49 51 53 55 56 58 61 62 64 65 66 66 66 66 65 64 63 63 62 61 60 58 57
34 33 32 32 32 33 33 34 35 36 37 38 39 40 41 42 43 45 47 49 51 52 54 56 58 60 62 63 65 66 66 66 65 64 63 62 61 61 59 58 57 55 53
32 32 32 32 32 32 33 34 35 36 37 38 39 41 42 42 44 46 48 50 51 53 55 57 59 61 62 65 66 66 65 63 62 62 61 59 58 57 55 54 53 51 49
31 31 31 31 32 32 33 34 35 36 37 38 39 40 41 43 44 46 48 50 52 54 56 58 60 62 64 65 66 65 64 62 60 59 57 56 55 53 52 51 49 47 44
30 30 31 31 31 31 33 34 35 36 37 38 39 40 41 43 45 47 49 51 52 55 57 59 61 63 65 65 64 63 62 61 59 56 54 52 51 50 49 47 45 43 40
29 29 30 30 31 31 32 33 35 36 37 38 39 40 41 43 45 47 49 50 52 55 57 59 62 64 64 64 63 62 60 58 56 54 52 50 48 47 45 43 42 39 36
29 29 29 30 31 31 32 33 35 36 37 38 39 40 41 43 45 48 49 51 53 56 58 60 62 63 63 62 61 60 58 55 53 51 49 48 46 44 43 41 39 36 33
28 28 29 29 30 31 32 33 34 35 36 37 39 40 42 44 45 48 49 51 54 56 58 60 61 62 62 61 60 58 55 53 51 49 47 46 44 42 40 38 35 33 30
Wind_Direction
274 282 287 291 294 297 301 303 306 309 311 312 312 313 314 314 314 314 314 314 313 313 312 312 311 310 310 309 309 308 307 306 305 304 302 301 300 299 297 295 294 292 290
276 283 288 291 294 297 300 303 306 309 311 312 312 313 314 314 314 314 314 314 313 313 313 312 312 311 311 310 309 309 308 307 306 305 303 302 301 300 298 297 295 293 291
277 283 288 291 294 297 300 303 306 309 311 312 312 313 313 314 314 314 314 313 313 313 313 312 312 311 311 311 310 310 309 308 306 305 304 303 302 301 299 297 296 294 292
277 283 288 291 294 297 300 303 306 308 310 311 311 312 313 313 314 314 313 313 314 313 313 312 312 312 311 311 310 310 309 308 307 306 305 304 303 301 300 298 297 295 293
277 283 288 291 294 296 300 303 305 308 309 310 311 311 312 313 313 313 313 313 313 313 313 312 312 312 311 311 310 310 309 308 307 306 305 305 303 302 300 299 297 295 294
278 283 287 290 293 297 299 302 304 306 308 309 309 310 312 312 313 313 313 312 312 312 312 312 312 312 312 311 310 310 309 308 307 306 305 304 303 302 300 298 297 295 294
278 282 286 290 294 297 299 301 303 305 307 308 308 310 311 312 312 312 312 312 312 312 312 311 312 312 311 310 310 309 309 308 307 306 305 304 302 301 299 298 296 295 293
277 282 287 291 294 296 298 300 301 304 305 307 308 309 310 311 311 311 311 311 312 312 312 311 312 311 311 310 309 309 308 308 306 305 304 303 302 301 299 297 295 294 292
277 283 287 291 293 295 297 299 300 303 304 305 307 308 310 310 310 310 311 311 312 312 312 312 312 311 310 310 309 309 309 308 306 305 304 303 302 300 298 296 295 294 292
278 283 287 290 292 294 296 298 300 302 303 305 306 307 308 309 309 310 311 311 312 312 312 312 312 311 311 310 310 310 309 308 307 306 305 304 303 301 299 297 295 294 292
278 282 286 288 291 293 295 297 299 301 303 304 305 306 307 308 309 310 311 311 311 311 312 312 313 312 311 311 310 310 310 309 308 307 305 304 303 301 300 298 296 295 293
278 282 284 287 290 292 293 296 298 300 302 303 304 305 306 307 308 310 310 311 311 311 311 312 312 312 311 311 311 311 310 309 308 307 306 304 303 302 300 299 297 296 294
277 280 283 285 289 290 292 295 298 300 301 302 304 305 306 307 308 309 310 310 311 311 311 311 312 312 311 311 311 310 310 309 308 307 306 304 303 301 300 299 298 296 295
276 279 282 285 287 289 292 294 297 298 300 301 303 304 305 306 308 309 309 310 310 310 311 311 310 311 311 311 310 310 310 309 308 307 306 304 303 302 300 299 298 296 295
276 279 282 284 286 288 291 294 296 298 299 301 302 304 305 306 308 309 309 309 309 310 311 310 310 311 311 311 310 310 310 309 308 307 306 305 304 303 302 300 299 298 296
275 279 281 283 285 288 291 293 295 297 298 300 302 303 305 306 308 308 308 309 310 311 312 311 311 311 311 311 311 310 310 309 309 308 307 306 305 304 303 302 300 299 298
275 278 280 282 285 287 290 292 294 296 298 300 302 303 305 306 307 308 308 309 310 311 312 312 312 312 312 311 311 311 311 310 309 308 308 307 305 305 304 303 303 302 300
273 276 279 281 284 287 289 292 294 296 298 300 301 303 304 306 307 308 309 310 311 312 312 312 312 312 312 313 312 312 311 311 310 310 309 308 307 306 306 305 305 304 303
272 275 278 281 284 286 289 291 293 296 298 300 301 302 304 306 307 309 310 310 311 312 313 313 313 314 314 314 314 313 312 312 311 311 310 310 309 308 308 307 306 306 305
271 274 277 280 283 286 288 291 293 296 298 299 301 303 305 307 308 309 310 311 312 313 314 315 315 315 315 315 315 315 314 313 312 312 312 311 310 310 310 309 309 308 307
270 274 277 279 282 286 288 290 293 296 298 300 302 304 306 308 309 310 311 312 313 314 315 316 317 317 317 317 316 316 316 315 314 314 314 313 312 312 312 312 311 310 308
270 273 276 279 283 286 288 291 294 296 299 300 302 305 307 309 310 311 312 313 314 316 317 318 319 319 319 319 319 319 318 318 316 316 315 315 315 315 315 315 314 312 310
269 272 275 279 283 286 289 291 295 297 300 301 303 306 307 309 310 312 314 315 316 317 318 319 320 320 320 320 321 321 321 320 319 319 319 319 318 318 318 318 316 315 313
269 272 276 280 283 286 289 292 295 298 300 302 304 306 308 309 311 313 315 316 317 318 319 320 321 322 322 322 323 323 322 322 322 321 322 322 322 321 321 321 320 318 317
268 272 276 280 283 286 289 293 296 298 301 303 305 307 308 310 312 314 316 317 318 319 320 321 322 322 323 324 324 324 324 324 324 323 323 324 324 323 323 323 322 321 320
268 272 277 280 283 287 291 294 297 300 302 304 306 308 310 312 313 316 317 318 319 320 321 322 323 324 324 325 326 326 325 325 325 325 325 325 325 325 325 324 323 323 322